This is the latest recevied weather packets stored in our database for station/object KG7KID-5. If no packets are shown the sender has not sent any weather packets the latest 10 day(s).
| Time | Temp. | Humidity | Pressure | Rain* | Wind** | Luminosity | Snow |
|---|---|---|---|---|---|---|---|
| 1777928505 | 22.22° C | 28% | 927.1 hPa | 0 mm | - | - | - |
| 1777928205 | 22.22° C | 29% | 927.1 hPa | 0 mm | - | - | - |
| 1777928046 | 22.78° C | 29% | 927 hPa | 0 mm | - | - | - |
| 1777927905 | 22.78° C | 28% | 926.9 hPa | 0 mm | - | - | - |
| 1777927605 | 22.78° C | 29% | 927 hPa | 0 mm | - | - | - |
| 1777927305 | 22.22° C | 28% | 927.2 hPa | 0 mm | - | - | - |
| 1777926747 | 22.22° C | 28% | 927.3 hPa | 0 mm | - | - | - |
| 1777926447 | 22.22° C | 29% | 927.4 hPa | 0 mm | - | - | - |
| 1777926146 | 22.22° C | 30% | 927.2 hPa | 0 mm | - | - | - |
| 1777925847 | 22.22° C | 30% | 927.3 hPa | 0 mm | - | - | - |
| 1777925260 | 21.67° C | 32% | 927.2 hPa | 0 mm | - | - | - |
| 1777924960 | 22.22° C | 30% | 927.2 hPa | 0 mm | - | - | - |
| 1777924360 | 22.22° C | 31% | 927.4 hPa | 0 mm | - | - | - |
| 1777923760 | 22.22° C | 31% | 927.2 hPa | 0 mm | - | - | - |
| 1777923460 | 22.22° C | 30% | 927.3 hPa | 0 mm | - | - | - |
| 1777923160 | 22.78° C | 29% | 927.2 hPa | 0 mm | - | - | - |
| 1777922860 | 22.78° C | 31% | 927 hPa | 0 mm | - | - | - |
| 1777922559 | 22.78° C | 32% | 927.2 hPa | 0 mm | - | - | - |
| 1777921861 | 22.78° C | 32% | 927.6 hPa | 0 mm | - | - | - |
| 1777921658 | 22.78° C | 32% | 927.6 hPa | 0 mm | - | - | - |
| 1777919482 | 22.22° C | 35% | 927.5 hPa | 0 mm | - | - | - |
| 1777918880 | 21.67° C | 35% | 927.6 hPa | 0 mm | - | - | - |
| 1777918281 | 21.67° C | 35% | 927.8 hPa | 0 mm | - | - | - |
| 1777917982 | 21.67° C | 34% | 928 hPa | 0 mm | - | - | - |
| 1777917681 | 21.67° C | 35% | 927.9 hPa | 0 mm | - | - | - |
* Rain latest hour (hover to see other rain measurements)
** Current wind speed in m/s (hover to see current wind gust speed)